Wind_Speed
33 34 34 35 35 35 36 36 37 38 38 38 37 37 37 37 35 34 34 33 33 33 32 32 31 31 30 30 30 29 29 28 28 28 28 28 28 28
31 32 32 33 34 35 34 35 35 36 37 37 36 36 37 37 37 36 35 35 35 35 34 33 32 32 32 31 31 30 30 30 30 30 30 29 29 29
27 29 30 31 32 33 34 34 34 35 36 37 36 35 36 36 36 37 37 36 36 35 34 33 33 32 32 31 31 31 31 31 31 31 30 30 30 30
23 25 28 29 31 31 33 34 34 35 35 35 36 36 36 36 35 36 36 37 37 36 35 34 33 32 32 33 32 32 32 32 32 32 32 31 30 30
19 22 24 26 27 29 30 32 33 33 34 33 34 35 36 35 35 35 36 36 35 35 35 34 34 33 33 33 33 33 32 32 32 32 32 32 31 30
15 18 21 23 24 26 29 31 32 33 33 33 33 33 35 36 36 36 35 34 34 34 34 34 34 33 33 33 33 32 31 30 31 31 31 30 29 29
12 15 17 19 21 23 25 28 29 31 31 31 32 32 33 33 33 33 34 34 34 34 33 32 32 32 32 32 32 31 31 31 31 31 30 29 28 28
9 12 14 16 17 19 21 24 26 28 29 29 30 30 30 30 31 31 31 32 32 31 32 32 31 31 31 31 31 31 31 31 30 29 28 27 26 26
6 8 11 13 15 16 17 20 22 24 25 26 26 27 28 28 28 29 29 30 29 28 29 30 30 30 30 30 29 29 29 28 28 27 26 25 25 25
4 6 8 10 11 14 15 17 19 21 24 25 24 25 27 27 26 27 28 28 29 28 28 28 28 27 27 28 27 26 26 25 25 25 24 24 24 24
2 3 6 8 9 10 12 14 16 18 21 21 20 21 24 24 24 25 26 27 27 27 27 26 26 26 26 26 25 24 23 22 22 23 23 23 22 22
3 1 2 4 5 7 9 11 13 14 17 18 18 18 19 21 21 22 23 24 25 25 25 25 24 24 24 24 23 22 21 21 20 20 20 20 21 21
5 2 1 1 2 5 7 8 9 11 13 15 15 16 17 18 19 19 20 21 21 22 21 22 22 22 22 21 21 21 20 19 19 18 18 18 18 18
7 4 3 1 0 2 3 4 6 8 10 11 12 13 14 16 16 17 18 19 19 19 19 19 19 19 19 19 19 18 18 18 18 17 16 15 15 16
8 6 4 2 1 0 2 3 4 6 8 9 10 11 11 12 13 14 15 16 17 17 17 18 17 17 16 17 17 16 17 17 16 16 15 15 14 14
8 7 5 4 2 1 1 2 3 4 6 8 8 8 9 10 11 12 13 13 14 16 16 16 16 16 15 15 15 15 15 15 15 14 14 13 14 14
8 7 5 3 3 2 0 1 2 4 5 6 7 7 8 9 9 9 10 12 13 13 14 14 14 14 14 14 14 14 14 14 14 13 13 13 13 13
8 6 5 4 3 2 1 1 3 3 4 5 7 7 8 8 8 9 9 10 10 11 11 11 12 12 13 13 13 13 12 12 13 13 13 13 12 12
7 6 4 3 2 2 1 1 2 3 4 5 6 6 7 8 9 9 9 9 9 9 10 10 11 11 12 12 12 12 12 12 12 12 12 12 12 12
8 7 5 4 3 2 2 2 3 3 4 5 6 7 7 7 7 8 8 8 9 9 10 10 10 11 11 11 12 12 12 12 12 13 13 13 13 13
10 9 8 7 6 5 4 4 4 5 6 6 7 7 8 8 8 8 8 9 9 10 10 11 11 11 12 12 12 12 12 13 13 13 13 13 13 14
13 12 11 11 9 8 8 7 7 7 7 8 8 8 8 9 9 9 9 9 9 10 11 12 13 13 13 13 13 13 13 13 13 13 13 14 14 15
17 16 16 15 14 13 12 11 11 11 11 11 11 11 11 10 10 11 11 11 11 12 12 12 13 13 14 14 14 14 14 14 14 15 15 15 16 16
Wind_Direction
235 235 237 238 239 239 240 240 237 236 236 235 235 236 237 240 241 241 242 242 244 244 246 249 249 250 252 254 256 258 259 261 264 268 271 273 276 277
235 236 237 237 238 238 238 238 238 237 237 236 237 239 239 240 240 241 243 244 244 245 247 250 251 251 252 254 255 257 258 261 265 268 270 272 275 278
235 235 236 236 237 237 237 238 238 237 238 239 240 241 240 239 240 242 244 245 244 245 247 248 250 251 251 254 256 258 261 263 264 266 267 270 274 277
236 236 235 236 237 237 238 240 240 239 239 240 241 241 241 240 241 243 244 245 244 245 246 248 250 252 253 255 258 259 261 262 263 264 267 270 273 275
235 234 234 235 236 237 239 240 239 238 239 241 241 241 240 241 242 243 244 244 244 244 246 248 251 254 255 257 258 260 261 261 262 265 268 271 273 275
233 231 231 233 236 238 239 240 241 239 239 241 242 241 240 241 243 243 243 244 245 246 248 249 250 252 254 256 257 259 261 263 264 266 269 270 272 274
233 230 230 232 236 237 238 239 239 238 238 239 240 241 241 240 240 240 241 244 246 248 249 249 250 252 254 255 256 259 262 262 264 265 267 269 270 271
238 234 234 236 237 237 237 237 237 237 237 237 239 239 240 238 239 239 240 242 245 246 248 248 249 251 253 254 256 259 261 261 261 262 263 266 267 270
248 240 238 236 236 236 236 236 236 236 235 237 238 238 238 237 237 238 239 240 241 242 246 247 249 252 253 253 255 258 257 258 259 260 261 264 266 269
258 239 233 231 235 234 235 236 236 236 235 234 233 233 234 233 234 236 237 239 240 241 244 246 248 249 250 250 253 253 253 256 257 259 260 266 269 269
327 246 233 226 230 230 234 235 232 231 231 229 229 231 229 229 231 234 236 237 239 241 242 245 246 247 248 249 252 252 254 256 260 262 263 266 267 267
4 325 228 225 228 227 229 230 224 222 223 227 228 226 223 225 229 231 232 236 239 240 242 245 245 247 247 249 251 251 253 256 261 263 263 263 264 264
16 14 352 243 225 222 226 223 218 217 217 222 224 221 222 224 226 228 230 233 237 239 242 243 245 248 248 249 249 251 253 256 258 259 261 261 263 264
30 36 42 44 230 214 217 219 218 216 216 219 222 221 221 222 224 226 229 232 236 236 237 240 245 247 246 247 247 250 251 251 253 255 254 257 260 262
37 40 40 37 50 185 196 199 205 212 216 219 219 222 222 219 221 224 227 227 227 230 234 239 243 245 247 248 247 251 253 252 252 253 255 259 259 256
35 40 41 44 43 58 204 205 203 209 209 210 212 209 209 214 216 218 218 220 225 230 233 236 240 241 244 246 247 249 249 249 250 253 253 254 254 253
25 28 28 26 21 29 88 184 190 196 200 202 202 203 208 207 206 207 214 220 225 231 236 239 241 241 243 246 248 249 249 248 247 247 247 250 253 254
9 13 18 24 24 28 56 156 173 181 189 197 204 207 209 211 213 217 219 222 227 231 236 239 239 238 239 242 247 246 244 244 245 246 248 249 251 253
351 357 359 360 7 12 18 168 183 191 193 199 206 212 216 218 220 223 224 225 228 233 239 240 240 240 240 241 240 240 241 243 245 247 247 249 251 254
321 323 326 324 312 300 286 257 236 227 219 220 221 217 215 215 219 223 225 229 232 236 239 239 239 240 242 242 240 240 242 244 247 249 249 251 254 257
299 297 295 294 289 280 269 259 252 245 234 228 226 225 224 224 225 226 229 234 236 240 241 240 240 242 244 242 242 242 244 247 249 250 252 255 257 258
287 284 282 279 276 273 267 259 255 249 243 238 234 233 233 232 232 233 236 240 243 245 246 245 246 246 245 244 245 246 247 249 249 250 254 258 259 261
279 277 275 273 271 269 265 261 257 252 248 247 246 243 241 240 241 242 244 247 250 252 254 252 250 248 247 248 248 248 250 253 255 255 259 261 263 264
Height
5775 5779 5783 5787 5791 5795 5798 5802 5805 5809 5813 5817 5820 5823 5827 5830 5834 5837 5840 5842 5845 5847 5849 5851 5852 5854 5855 5856 5857 5858 5858 5859 5859 5859 5859 5858 5857 5856
5769 5773 5776 5780 5783 5787 5791 5794 5797 5801 5805 5809 5812 5815 5819 5822 5826 5829 5832 5834 5837 5839 5841 5843 5845 5846 5848 5849 5850 5850 5851 5852 5852 5852 5852 5851 5851 5850
5762 5766 5769 5773 5776 5780 5783 5786 5790 5793 5797 5800 5804 5807 5810 5814 5817 5820 5823 5826 5829 5831 5833 5835 5837 5838 5840 5841 5842 5843 5844 5844 5844 5845 5844 5844 5844 5843
5756 5759 5763 5766 5769 5773 5775 5779 5782 5786 5789 5792 5796 5799 5803 5806 5809 5812 5815 5817 5820 5823 5825 5827 5829 5830 5832 5833 5835 5835 5836 5836 5837 5837 5837 5837 5836 5835
5751 5754 5757 5760 5763 5766 5768 5771 5774 5778 5781 5785 5788 5791 5795 5798 5801 5804 5806 5809 5812 5814 5817 5819 5821 5823 5824 5825 5826 5827 5828 5829 5829 5829 5829 5828 5828 5827
5747 5749 5751 5754 5757 5759 5762 5764 5767 5770 5774 5777 5780 5783 5786 5789 5792 5795 5798 5801 5804 5806 5808 5810 5812 5814 5816 5817 5819 5819 5820 5820 5821 5821 5821 5820 5820 5819
5743 5745 5747 5749 5751 5753 5755 5758 5760 5763 5766 5769 5772 5775 5778 5782 5785 5787 5790 5793 5796 5798 5800 5803 5805 5807 5808 5809 5810 5811 5812 5813 5813 5813 5813 5813 5812 5812
5741 5741 5743 5744 5746 5747 5749 5751 5754 5757 5760 5762 5765 5769 5771 5774 5777 5780 5783 5786 5789 5791 5793 5795 5797 5799 5800 5802 5802 5803 5804 5804 5805 5805 5805 5805 5805 5805
5738 5739 5739 5740 5741 5743 5744 5746 5748 5751 5754 5757 5759 5762 5765 5767 5770 5773 5776 5779 5781 5784 5786 5788 5790 5791 5793 5794 5795 5795 5796 5797 5797 5798 5798 5798 5798 5798
5737 5736 5737 5737 5738 5739 5740 5742 5743 5746 5748 5751 5753 5755 5758 5761 5764 5767 5769 5771 5774 5776 5779 5781 5783 5784 5786 5787 5788 5789 5789 5790 5791 5791 5791 5791 5791 5791
5736 5735 5735 5735 5736 5736 5737 5738 5739 5741 5743 5745 5748 5750 5752 5755 5758 5760 5763 5766 5768 5770 5773 5775 5777 5778 5779 5780 5781 5782 5783 5783 5784 5784 5785 5785 5785 5785
5736 5734 5734 5734 5734 5735 5735 5735 5736 5738 5739 5741 5743 5746 5748 5750 5753 5755 5758 5760 5762 5765 5767 5769 5770 5772 5773 5774 5775 5776 5777 5777 5778 5778 5779 5779 5779 5779
5736 5735 5734 5733 5733 5733 5734 5734 5735 5736 5737 5739 5740 5742 5744 5747 5749 5751 5753 5756 5758 5760 5762 5763 5765 5766 5767 5769 5770 5770 5771 5772 5772 5773 5773 5773 5773 5774
5738 5736 5735 5735 5734 5734 5733 5733 5734 5735 5736 5737 5738 5740 5742 5744 5746 5747 5749 5751 5753 5755 5757 5759 5760 5761 5762 5764 5765 5765 5766 5767 5767 5768 5768 5768 5769 5769
5740 5738 5737 5736 5735 5734 5734 5734 5734 5734 5735 5736 5737 5738 5739 5741 5743 5744 5746 5748 5749 5751 5752 5754 5756 5757 5758 5759 5760 5761 5761 5762 5763 5763 5764 5764 5764 5765
5742 5740 5738 5737 5736 5735 5734 5734 5734 5734 5734 5735 5736 5737 5738 5739 5741 5742 5743 5745 5746 5748 5749 5750 5752 5753 5754 5755 5756 5756 5757 5758 5758 5759 5759 5760 5760 5760
5744 5742 5740 5739 5737 5736 5735 5734 5734 5734 5734 5735 5735 5736 5737 5738 5739 5740 5741 5743 5744 5745 5746 5747 5748 5749 5750 5751 5751 5752 5753 5754 5754 5755 5756 5756 5756 5756
5745 5743 5742 5740 5738 5737 5736 5735 5735 5734 5734 5735 5735 5736 5737 5737 5738 5739 5739 5740 5741 5742 5743 5744 5745 5745 5746 5747 5748 5749 5749 5750 5751 5751 5752 5752 5752 5753
5746 5744 5742 5741 5739 5738 5737 5736 5735 5735 5735 5735 5735 5735 5735 5736 5737 5737 5738 5738 5739 5740 5741 5741 5742 5742 5743 5744 5745 5746 5746 5747 5747 5747 5748 5748 5749 5749
5745 5744 5742 5741 5739 5738 5737 5736 5735 5735 5734 5734 5734 5734 5734 5735 5735 5736 5736 5736 5737 5738 5738 5738 5739 5740 5740 5741 5741 5742 5743 5743 5744 5744 5745 5745 5745 5746
5744 5742 5741 5739 5738 5737 5736 5735 5735 5734 5733 5733 5733 5733 5733 5733 5734 5734 5734 5734 5735 5735 5735 5736 5736 5736 5737 5737 5738 5738 5739 5739 5740 5740 5741 5741 5741 5741
5741 5739 5738 5737 5736 5735 5734 5734 5733 5732 5732 5732 5731 5731 5731 5731 5731 5732 5732 5732 5732 5732 5732 5732 5733 5733 5733 5734 5734 5735 5735 5735 5736 5736 5736 5737 5737 5737
5736 5735 5734 5733 5732 5732 5731 5730 5730 5729 5729 5729 5729 5729 5728 5728 5729 5729 5729 5729 5729 5729 5729 5729 5729 5729 5729 5730 5730 5731 5731 5731 5732 5732 5732 5732 5732 5732